owner,sensor,date,latitude,longitude,vertical_datum,direction_of_sea_water_velocity,sea_water_speed,upward_sea_water_velocity,qcFlag 
TABS,ioos:station:wmo:42048:1,1999-11-01T00:00:00Z,27.9396,-96.8429,2.0,355.6569807,7.922752047,-99999.0,'11133222,11111222,99999999' 
TABS,ioos:station:wmo:42048:1,1999-11-01T00:30:00Z,27.9396,-96.8429,2.0,353.0472692,4.956450343,-99999.0,'11133222,11111222,99999999' 
TABS,ioos:station:wmo:42048:1,1999-11-01T01:00:00Z,27.9396,-96.8429,2.0,330.6710479,5.471316112,-99999.0,'11133222,11111222,99999999' 
TABS,ioos:station:wmo:42048:1,1999-11-01T01:30:00Z,27.9396,-96.8429,2.0,332.0588717,5.399425895,-99999.0,'11133222,11111222,99999999' 
TABS,ioos:station:wmo:42048:1,1999-11-01T02:00:00Z,27.9396,-96.8429,2.0,0.000210459,4.17,-99999.0,'11133222,11111222,99999999' 
TABS,ioos:station:wmo:42048:1,1999-11-01T02:30:00Z,27.9396,-96.8429,2.0,339.5768977,5.559469399,-99999.0,'11133222,11111222,99999999' 
TABS,ioos:station:wmo:42048:1,1999-11-01T03:00:00Z,27.9396,-96.8429,2.0,357.7805601,3.872905886,-99999.0,'11133222,11111222,99999999' 
TABS,ioos:station:wmo:42048:1,1999-11-01T03:30:00Z,27.9396,-96.8429,2.0,12.95153855,3.97102002,-99999.0,'11133222,11111222,99999999' 
TABS,ioos:station:wmo:42048:1,1999-11-01T04:00:00Z,27.9396,-96.8429,2.0,2.504255445,3.433278317,-99999.0,'11133222,11111222,99999999' 
TABS,ioos:station:wmo:42048:1,1999-11-01T04:30:00Z,27.9396,-96.8429,2.0,6.76258432,2.547724475,-99999.0,'11133222,11111222,99999999' 
TABS,ioos:station:wmo:42048:1,1999-11-01T05:00:00Z,27.9396,-96.8429,2.0,346.0545142,3.070504844,-99999.0,'11133222,11111222,99999999' 
TABS,ioos:station:wmo:42048:1,1999-11-01T05:30:00Z,27.9396,-96.8429,2.0,353.3677114,3.896074948,-99999.0,'11133222,11111222,99999999' 
TABS,ioos:station:wmo:42048:1,1999-11-01T06:00:00Z,27.9396,-96.8429,2.0,324.7205089,3.099193443,-99999.0,'11133222,11111222,99999999' 
TABS,ioos:station:wmo:42048:1,1999-11-01T06:30:00Z,27.9396,-96.8429,2.0,342.407827,3.440930107,-99999.0,'11133222,11111222,99999999' 
TABS,ioos:station:wmo:42048:1,1999-11-01T07:00:00Z,27.9396,-96.8429,2.0,354.2515605,2.995062604,-99999.0,'11133222,11111222,99999999' 
TABS,ioos:station:wmo:42048:1,1999-11-01T07:30:00Z,27.9396,-96.8429,2.0,325.7893666,3.966270288,-99999.0,'11133222,11111222,99999999' 
TABS,ioos:station:wmo:42048:1,1999-11-01T08:00:00Z,27.9396,-96.8429,2.0,311.2883506,3.167412193,-99999.0,'11133222,11111222,99999999' 
TABS,ioos:station:wmo:42048:1,1999-11-01T08:30:00Z,27.9396,-96.8429,2.0,268.0109459,4.322603382,-99999.0,'11133222,11111222,99999999' 
TABS,ioos:station:wmo:42048:1,1999-11-01T09:00:00Z,27.9396,-96.8429,2.0,254.9576765,4.007305828,-99999.0,'11133222,11111222,99999999' 
TABS,ioos:station:wmo:42048:1,1999-11-01T09:30:00Z,27.9396,-96.8429,2.0,267.1886297,6.117360542,-99999.0,'11133222,11111222,99999999' 
TABS,ioos:station:wmo:42048:1,1999-11-01T10:00:00Z,27.9396,-96.8429,2.0,288.4353266,5.186135363,-99999.0,'11133222,11111222,99999999' 
TABS,ioos:station:wmo:42048:1,1999-11-01T10:30:00Z,27.9396,-96.8429,2.0,357.1186335,2.98377278,-99999.0,'11133222,11111222,99999999' 
TABS,ioos:station:wmo:42048:1,1999-11-01T11:00:00Z,27.9396,-96.8429,2.0,13.53603518,4.443422105,-99999.0,'11133222,11111222,99999999' 
TABS,ioos:station:wmo:42048:1,1999-11-01T11:30:00Z,27.9396,-96.8429,2.0,354.2515605,1.497531302,-99999.0,'11133222,11111222,99999999' 
TABS,ioos:station:wmo:42048:1,1999-11-01T12:00:00Z,27.9396,-96.8429,2.0,0.000210459,0.45,-99999.0,'11133222,11111222,99999999' 
TABS,ioos:station:wmo:42048:1,1999-11-01T12:30:00Z,27.9396,-96.8429,2.0,8.207407679,1.050761629,-99999.0,'11133222,11111222,99999999' 
TABS,ioos:station:wmo:42048:1,1999-11-01T13:00:00Z,27.9396,-96.8429,2.0,206.5647786,0.335410197,-99999.0,'11133222,11111222,99999999' 
TABS,ioos:station:wmo:42048:1,1999-11-01T13:30:00Z,27.9396,-96.8429,2.0,171.7925923,1.050761629,-99999.0,'11133222,11111222,99999999' 
TABS,ioos:station:wmo:42048:1,1999-11-01T14:00:00Z,27.9396,-96.8429,2.0,162.5421135,2.96664794,-99999.0,'11133222,11111222,99999999' 
TABS,ioos:station:wmo:42048:1,1999-11-01T14:30:00Z,27.9396,-96.8429,2.0,128.6127927,1.906882272,-99999.0,'11133222,11111222,99999999' 
TABS,ioos:station:wmo:42048:1,1999-11-01T15:00:00Z,27.9396,-96.8429,2.0,149.843033,2.070193228,-99999.0,'11133222,11111222,99999999' 
TABS,ioos:station:wmo:42048:1,1999-11-01T15:30:00Z,27.9396,-96.8429,2.0,174.2511396,1.497531302,-99999.0,'11133222,11111222,99999999' 
TABS,ioos:station:wmo:42048:1,1999-11-01T16:00:00Z,27.9396,-96.8429,2.0,224.9996843,0.636396103,-99999.0,'11133222,11111222,99999999' 
TABS,ioos:station:wmo:42048:1,1999-11-01T16:30:00Z,27.9396,-96.8429,2.0,270.0004209,1.49,-99999.0,'11133222,11111222,99999999' 
TABS,ioos:station:wmo:42048:1,1999-11-01T17:00:00Z,27.9396,-96.8429,2.0,233.1297677,0.75,-99999.0,'11133222,11111222,99999999' 
TABS,ioos:station:wmo:42048:1,1999-11-01T17:30:00Z,27.9396,-96.8429,2.0,238.4746142,2.275895428,-99999.0,'11133222,11111222,99999999' 
TABS,ioos:station:wmo:42048:1,1999-11-01T18:00:00Z,27.9396,-96.8429,2.0,236.9352589,3.555840266,-99999.0,'11133222,11111222,99999999' 
TABS,ioos:station:wmo:42048:1,1999-11-01T18:30:00Z,27.9396,-96.8429,2.0,258.7389808,4.557740668,-99999.0,'11133222,11111222,99999999' 
TABS,ioos:station:wmo:42048:1,1999-11-01T19:00:00Z,27.9396,-96.8429,2.0,230.4745555,4.446774112,-99999.0,'11133222,11111222,99999999' 
TABS,ioos:station:wmo:42048:1,1999-11-01T19:30:00Z,27.9396,-96.8429,2.0,237.3891544,4.416197459,-99999.0,'11133222,11111222,99999999' 
TABS,ioos:station:wmo:42048:1,1999-11-01T20:00:00Z,27.9396,-96.8429,2.0,232.5187331,3.1881813,-99999.0,'11133222,11111222,99999999' 
TABS,ioos:station:wmo:42048:1,1999-11-01T20:30:00Z,27.9396,-96.8429,2.0,208.4529622,4.071854614,-99999.0,'11133222,11111222,99999999' 
TABS,ioos:station:wmo:42048:1,1999-11-01T21:00:00Z,27.9396,-96.8429,2.0,203.1717755,5.667186251,-99999.0,'11133222,11111222,99999999' 
TABS,ioos:station:wmo:42048:1,1999-11-01T21:30:00Z,27.9396,-96.8429,2.0,207.486771,8.059832504,-99999.0,'11133222,11111222,99999999' 
TABS,ioos:station:wmo:42048:1,1999-11-01T22:00:00Z,27.9396,-96.8429,2.0,200.9082757,10.8440675,-99999.0,'11111222,11111222,99999999' 
TABS,ioos:station:wmo:42048:1,1999-11-01T22:30:00Z,27.9396,-96.8429,2.0,208.43405,12.20200803,-99999.0,'11111222,11111222,99999999' 
TABS,ioos:station:wmo:42048:1,1999-11-01T23:00:00Z,27.9396,-96.8429,2.0,216.4334768,11.29832731,-99999.0,'11111222,11111222,99999999' 
TABS,ioos:station:wmo:42048:1,1999-11-01T23:30:00Z,27.9396,-96.8429,2.0,218.3521373,13.68258017,-99999.0,'11111222,11111222,99999999' 
TABS,ioos:station:wmo:42048:1,1999-11-02T00:00:00Z,27.9396,-96.8429,2.0,218.8898053,12.82196943,-99999.0,'11111222,11111222,99999999' 
TABS,ioos:station:wmo:42048:1,1999-11-02T00:30:00Z,27.9396,-96.8429,2.0,223.502989,11.91174211,-99999.0,'11111222,11111222,99999999' 
TABS,ioos:station:wmo:42048:1,1999-11-02T01:00:00Z,27.9396,-96.8429,2.0,220.8859192,10.25117554,-99999.0,'11111222,11111222,99999999' 
TABS,ioos:station:wmo:42048:1,1999-11-02T01:30:00Z,27.9396,-96.8429,2.0,191.9353642,5.02871753,-99999.0,'11133222,11111222,99999999' 
TABS,ioos:station:wmo:42048:1,1999-11-02T02:00:00Z,27.9396,-96.8429,2.0,176.3934894,2.384722206,-99999.0,'11133222,11111222,99999999' 
TABS,ioos:station:wmo:42048:1,1999-11-02T02:30:00Z,27.9396,-96.8429,2.0,141.2461958,2.859545418,-99999.0,'11133222,11111222,99999999' 
TABS,ioos:station:wmo:42048:1,1999-11-02T03:00:00Z,27.9396,-96.8429,2.0,131.2879297,3.167412193,-99999.0,'11133222,11111222,99999999' 
TABS,ioos:station:wmo:42048:1,1999-11-02T03:30:00Z,27.9396,-96.8429,2.0,136.4787998,4.109659353,-99999.0,'11133222,11111222,99999999' 
TABS,ioos:station:wmo:42048:1,1999-11-02T04:00:00Z,27.9396,-96.8429,2.0,156.9337285,2.27160736,-99999.0,'11133222,11111222,99999999' 
TABS,ioos:station:wmo:42048:1,1999-11-02T04:30:00Z,27.9396,-96.8429,2.0,134.9998948,1.258650071,-99999.0,'11133222,11111222,99999999' 
TABS,ioos:station:wmo:42048:1,1999-11-02T05:00:00Z,27.9396,-96.8429,2.0,104.149443,2.454465319,-99999.0,'11133222,11111222,99999999' 
TABS,ioos:station:wmo:42048:1,1999-11-02T05:30:00Z,27.9396,-96.8429,2.0,141.3869969,1.906882272,-99999.0,'11133222,11111222,99999999' 
TABS,ioos:station:wmo:42048:1,1999-11-02T06:00:00Z,27.9396,-96.8429,2.0,0.000210459,0.74,-99999.0,'11133222,11111222,99999999' 
TABS,ioos:station:wmo:42048:1,1999-11-02T06:30:00Z,27.9396,-96.8429,2.0,26.56519952,0.670820393,-99999.0,'11133222,11111222,99999999' 
TABS,ioos:station:wmo:42048:1,1999-11-02T07:00:00Z,27.9396,-96.8429,2.0,77.38070722,1.373171512,-99999.0,'11133222,11111222,99999999' 
TABS,ioos:station:wmo:42048:1,1999-11-02T07:30:00Z,27.9396,-96.8429,2.0,356.15204,2.23503915,-99999.0,'11133222,11111222,99999999' 
TABS,ioos:station:wmo:42048:1,1999-11-02T08:00:00Z,27.9396,-96.8429,2.0,85.57872092,1.945790328,-99999.0,'11133222,11111222,99999999' 
TABS,ioos:station:wmo:42048:1,1999-11-02T08:30:00Z,27.9396,-96.8429,2.0,38.12100809,2.656633208,-99999.0,'11133222,11111222,99999999' 
TABS,ioos:station:wmo:42048:1,1999-11-02T09:00:00Z,27.9396,-96.8429,2.0,40.20998571,2.540314941,-99999.0,'11133222,11111222,99999999' 
TABS,ioos:station:wmo:42048:1,1999-11-02T09:30:00Z,27.9396,-96.8429,2.0,26.56519952,2.660920893,-99999.0,'11133222,11111222,99999999' 
TABS,ioos:station:wmo:42048:1,1999-11-02T10:00:00Z,27.9396,-96.8429,2.0,0.000210459,3.28,-99999.0,'11133222,11111222,99999999' 
TABS,ioos:station:wmo:42048:1,1999-11-02T10:30:00Z,27.9396,-96.8429,2.0,76.54508224,3.82498366,-99999.0,'11133222,11111222,99999999' 
TABS,ioos:station:wmo:42048:1,1999-11-02T11:00:00Z,27.9396,-96.8429,2.0,40.57882615,2.751763071,-99999.0,'11133222,11111222,99999999' 
TABS,ioos:station:wmo:42048:1,1999-11-02T11:30:00Z,27.9396,-96.8429,2.0,80.1017632,6.050057851,-99999.0,'11133222,11111222,99999999' 
TABS,ioos:station:wmo:42048:1,1999-11-02T12:00:00Z,27.9396,-96.8429,2.0,41.28814015,3.167412193,-99999.0,'11133222,11111222,99999999' 
TABS,ioos:station:wmo:42048:1,1999-11-02T12:30:00Z,27.9396,-96.8429,2.0,78.70651577,6.842492236,-99999.0,'11133222,11111222,99999999' 
TABS,ioos:station:wmo:42048:1,1999-11-02T13:00:00Z,27.9396,-96.8429,2.0,47.22928006,5.271935129,-99999.0,'11133222,11111222,99999999' 
TABS,ioos:station:wmo:42048:1,1999-11-02T13:30:00Z,27.9396,-96.8429,2.0,57.88639521,8.972898083,-99999.0,'11133222,11111222,99999999' 
TABS,ioos:station:wmo:42048:1,1999-11-02T14:00:00Z,27.9396,-96.8429,2.0,49.96081736,9.730883824,-99999.0,'11133222,11111222,99999999' 
TABS,ioos:station:wmo:42048:1,1999-11-02T14:30:00Z,27.9396,-96.8429,2.0,57.45681368,12.19475297,-99999.0,'11111222,11111222,99999999' 
TABS,ioos:station:wmo:42048:1,1999-11-02T15:00:00Z,27.9396,-96.8429,2.0,53.50272779,13.53428609,-99999.0,'11111222,11111222,99999999' 
TABS,ioos:station:wmo:42048:1,1999-11-02T15:30:00Z,27.9396,-96.8429,2.0,53.36760011,14.48012431,-99999.0,'11111222,11111222,99999999' 
TABS,ioos:station:wmo:42048:1,1999-11-02T16:00:00Z,27.9396,-96.8429,2.0,54.99945997,16.37071165,-99999.0,'11111222,11111222,99999999' 
TABS,ioos:station:wmo:42048:1,1999-11-02T16:30:00Z,27.9396,-96.8429,2.0,46.8397155,19.60403275,-99999.0,'11111222,11111222,99999999' 
TABS,ioos:station:wmo:42048:1,1999-11-02T17:00:00Z,27.9396,-96.8429,2.0,42.31794586,15.71498648,-99999.0,'11111222,11111222,99999999' 
TABS,ioos:station:wmo:42048:1,1999-11-02T17:30:00Z,27.9396,-96.8429,2.0,42.22058321,21.72666795,-99999.0,'11111222,11111222,99999999' 
TABS,ioos:station:wmo:42048:1,1999-11-02T18:00:00Z,27.9396,-96.8429,2.0,40.65821081,15.31746715,-99999.0,'11111222,11111222,99999999' 
TABS,ioos:station:wmo:42048:1,1999-11-02T18:30:00Z,27.9396,-96.8429,2.0,45.59484835,20.43648698,-99999.0,'11111222,11111222,99999999' 
TABS,ioos:station:wmo:42048:1,1999-11-02T19:00:00Z,27.9396,-96.8429,2.0,43.23155497,17.18380924,-99999.0,'11111222,11111222,99999999' 
TABS,ioos:station:wmo:42048:1,1999-11-02T19:30:00Z,27.9396,-96.8429,2.0,39.47998245,17.56822416,-99999.0,'11111222,11111222,99999999' 
TABS,ioos:station:wmo:42048:1,1999-11-02T20:00:00Z,27.9396,-96.8429,2.0,29.45664014,14.53953576,-99999.0,'11111222,11111222,99999999' 
TABS,ioos:station:wmo:42048:1,1999-11-02T20:30:00Z,27.9396,-96.8429,2.0,35.59904296,17.40228146,-99999.0,'11111222,11111222,99999999' 
TABS,ioos:station:wmo:42048:1,1999-11-02T21:00:00Z,27.9396,-96.8429,2.0,38.68157654,12.40019758,-99999.0,'11111222,11111222,99999999' 
TABS,ioos:station:wmo:42048:1,1999-11-02T21:30:00Z,27.9396,-96.8429,2.0,31.75804079,14.72456791,-99999.0,'11111222,11111222,99999999' 
TABS,ioos:station:wmo:42048:1,1999-11-02T22:00:00Z,27.9396,-96.8429,2.0,40.19761042,13.85135372,-99999.0,'11111222,11111222,99999999' 
TABS,ioos:station:wmo:42048:1,1999-11-02T22:30:00Z,27.9396,-96.8429,2.0,38.1371313,15.91789245,-99999.0,'11111222,11111222,99999999' 
TABS,ioos:station:wmo:42048:1,1999-11-02T23:00:00Z,27.9396,-96.8429,2.0,27.92444152,14.32828322,-99999.0,'11111222,11111222,99999999' 
TABS,ioos:station:wmo:42048:1,1999-11-02T23:30:00Z,27.9396,-96.8429,2.0,30.44668974,30.5880189,-99999.0,'11111222,11111222,99999999' 
TABS,ioos:station:wmo:42048:1,1999-11-03T00:00:00Z,27.9396,-96.8429,2.0,28.82967876,32.14398233,-99999.0,'11111222,11111222,99999999' 
TABS,ioos:station:wmo:42048:1,1999-11-03T00:30:00Z,27.9396,-96.8429,2.0,29.60834616,30.15789117,-99999.0,'11111222,11111222,99999999' 
TABS,ioos:station:wmo:42048:1,1999-11-03T01:00:00Z,27.9396,-96.8429,2.0,32.33051696,31.20789964,-99999.0,'11111222,11111222,99999999' 
TABS,ioos:station:wmo:42048:1,1999-11-03T01:30:00Z,27.9396,-96.8429,2.0,32.20938994,31.87539804,-99999.0,'11111222,11111222,99999999' 
TABS,ioos:station:wmo:42048:1,1999-11-03T02:00:00Z,27.9396,-96.8429,2.0,32.01243128,35.14422997,-99999.0,'11111222,11111222,99999999' 
TABS,ioos:station:wmo:42048:1,1999-11-03T02:30:00Z,27.9396,-96.8429,2.0,36.0478181,33.17141541,-99999.0,'11111222,11111222,99999999' 
TABS,ioos:station:wmo:42048:1,1999-11-03T03:00:00Z,27.9396,-96.8429,2.0,34.44537857,34.51089683,-99999.0,'11111222,11111222,99999999' 
TABS,ioos:station:wmo:42048:1,1999-11-03T03:30:00Z,27.9396,-96.8429,2.0,38.97992447,34.11512861,-99999.0,'11111222,11111222,99999999' 
TABS,ioos:station:wmo:42048:1,1999-11-03T04:00:00Z,27.9396,-96.8429,2.0,40.74649231,31.26954109,-99999.0,'11111222,11111222,99999999' 
TABS,ioos:station:wmo:42048:1,1999-11-03T04:30:00Z,27.9396,-96.8429,2.0,43.05220251,30.99625945,-99999.0,'11111222,11111222,99999999' 
TABS,ioos:station:wmo:42048:1,1999-11-03T05:00:00Z,27.9396,-96.8429,2.0,43.73457516,33.61698529,-99999.0,'11111222,11111222,99999999' 
TABS,ioos:station:wmo:42048:1,1999-11-03T05:30:00Z,27.9396,-96.8429,2.0,44.06711601,32.13519255,-99999.0,'11111222,11111222,99999999' 
TABS,ioos:station:wmo:42048:1,1999-11-03T06:00:00Z,27.9396,-96.8429,2.0,42.63345995,33.21992775,-99999.0,'11111222,11111222,99999999' 
TABS,ioos:station:wmo:42048:1,1999-11-03T06:30:00Z,27.9396,-96.8429,2.0,44.63960886,33.71551868,-99999.0,'11111222,11111222,99999999' 
TABS,ioos:station:wmo:42048:1,1999-11-03T07:00:00Z,27.9396,-96.8429,2.0,39.73953778,32.16032494,-99999.0,'11111222,11111222,99999999' 
TABS,ioos:station:wmo:42048:1,1999-11-03T07:30:00Z,27.9396,-96.8429,2.0,33.93824865,38.43831032,-99999.0,'11111222,11111222,99999999' 
TABS,ioos:station:wmo:42048:1,1999-11-03T08:00:00Z,27.9396,-96.8429,2.0,38.58447684,32.02033416,-99999.0,'11111222,11111222,99999999' 
TABS,ioos:station:wmo:42048:1,1999-11-03T08:30:00Z,27.9396,-96.8429,2.0,44.63732634,33.50339087,-99999.0,'11111222,11111222,99999999' 
TABS,ioos:station:wmo:42048:1,1999-11-03T09:00:00Z,27.9396,-96.8429,2.0,38.21060913,35.64775729,-99999.0,'11111222,11111222,99999999' 
TABS,ioos:station:wmo:42048:1,1999-11-03T09:30:00Z,27.9396,-96.8429,2.0,38.46923958,34.25534265,-99999.0,'11111222,11111222,99999999' 
TABS,ioos:station:wmo:42048:1,1999-11-03T10:00:00Z,27.9396,-96.8429,2.0,35.94853904,36.81076066,-99999.0,'11111222,11111222,99999999' 
TABS,ioos:station:wmo:42048:1,1999-11-03T10:30:00Z,27.9396,-96.8429,2.0,37.80031597,36.95487113,-99999.0,'11111222,11111222,99999999' 
TABS,ioos:station:wmo:42048:1,1999-11-03T11:00:00Z,27.9396,-96.8429,2.0,43.87432554,32.031049,-99999.0,'11111222,11111222,99999999' 
TABS,ioos:station:wmo:42048:1,1999-11-03T11:30:00Z,27.9396,-96.8429,2.0,44.62316563,32.24476702,-99999.0,'11111222,11111222,99999999' 
TABS,ioos:station:wmo:42048:1,1999-11-03T12:00:00Z,27.9396,-96.8429,2.0,55.75976987,25.41476146,-99999.0,'11111222,11111222,99999999' 
TABS,ioos:station:wmo:42048:1,1999-11-03T12:30:00Z,27.9396,-96.8429,2.0,48.4579974,29.66056136,-99999.0,'11111222,11111222,99999999' 
TABS,ioos:station:wmo:42048:1,1999-11-03T13:00:00Z,27.9396,-96.8429,2.0,45.96449953,31.08881793,-99999.0,'11111222,11111222,99999999' 
TABS,ioos:station:wmo:42048:1,1999-11-03T13:30:00Z,27.9396,-96.8429,2.0,51.34028215,28.62196534,-99999.0,'11111222,11111222,99999999' 
TABS,ioos:station:wmo:42048:1,1999-11-03T14:00:00Z,27.9396,-96.8429,2.0,51.58901212,26.6216303,-99999.0,'11111222,11111222,99999999' 
TABS,ioos:station:wmo:42048:1,1999-11-03T14:30:00Z,27.9396,-96.8429,2.0,54.95792012,26.21133533,-99999.0,'11111222,11111222,99999999' 
TABS,ioos:station:wmo:42048:1,1999-11-03T15:00:00Z,27.9396,-96.8429,2.0,52.05063977,28.34303089,-99999.0,'11111222,11111222,99999999' 
TABS,ioos:station:wmo:42048:1,1999-11-03T15:30:00Z,27.9396,-96.8429,2.0,52.12707743,25.4759043,-99999.0,'11111222,11111222,99999999' 
TABS,ioos:station:wmo:42048:1,1999-11-03T16:00:00Z,27.9396,-96.8429,2.0,51.06753676,23.94951774,-99999.0,'11111222,11111222,99999999' 
TABS,ioos:station:wmo:42048:1,1999-11-03T16:30:00Z,27.9396,-96.8429,2.0,48.16064464,26.80476264,-99999.0,'11111222,11111222,99999999' 
TABS,ioos:station:wmo:42048:1,1999-11-03T17:00:00Z,27.9396,-96.8429,2.0,47.72930965,26.58201083,-99999.0,'11111222,11111222,99999999' 
TABS,ioos:station:wmo:42048:1,1999-11-03T17:30:00Z,27.9396,-96.8429,2.0,43.49114641,27.92626004,-99999.0,'11111222,11111222,99999999' 
TABS,ioos:station:wmo:42048:1,1999-11-03T18:00:00Z,27.9396,-96.8429,2.0,45.22281328,27.28745683,-99999.0,'11111222,11111222,99999999' 
TABS,ioos:station:wmo:42048:1,1999-11-03T18:30:00Z,27.9396,-96.8429,2.0,46.16390599,30.98473979,-99999.0,'11111222,11111222,99999999' 
TABS,ioos:station:wmo:42048:1,1999-11-03T19:00:00Z,27.9396,-96.8429,2.0,48.6494301,29.77299783,-99999.0,'11111222,11111222,99999999' 
TABS,ioos:station:wmo:42048:1,1999-11-03T19:30:00Z,27.9396,-96.8429,2.0,46.56675256,30.77772084,-99999.0,'11111222,11111222,99999999' 
TABS,ioos:station:wmo:42048:1,1999-11-03T20:00:00Z,27.9396,-96.8429,2.0,45.58672957,31.07897199,-99999.0,'11111222,11111222,99999999' 
TABS,ioos:station:wmo:42048:1,1999-11-03T20:30:00Z,27.9396,-96.8429,2.0,46.27367117,33.40490533,-99999.0,'11111222,11111222,99999999' 
TABS,ioos:station:wmo:42048:1,1999-11-03T21:00:00Z,27.9396,-96.8429,2.0,48.7391092,32.31284884,-99999.0,'11111222,11111222,99999999' 
TABS,ioos:station:wmo:42048:1,1999-11-03T21:30:00Z,27.9396,-96.8429,2.0,38.67243691,14.30707867,-99999.0,'11111222,11111222,99999999' 
TABS,ioos:station:wmo:42048:1,1999-11-03T22:00:00Z,27.9396,-96.8429,2.0,34.89468249,9.631723626,-99999.0,'11133222,11111222,99999999' 
TABS,ioos:station:wmo:42048:1,1999-11-03T22:30:00Z,27.9396,-96.8429,2.0,43.37590021,14.96839337,-99999.0,'11111222,11111222,99999999' 
TABS,ioos:station:wmo:42048:1,1999-11-03T23:00:00Z,27.9396,-96.8429,2.0,36.15336599,14.39112574,-99999.0,'11111222,11111222,99999999' 
TABS,ioos:station:wmo:42048:1,1999-11-03T23:30:00Z,27.9396,-96.8429,2.0,53.75761673,32.50994925,-99999.0,'11111222,11111222,99999999' 
TABS,ioos:station:wmo:42048:1,1999-11-04T00:00:00Z,27.9396,-96.8429,2.0,57.26600723,29.75548689,-99999.0,'11111222,11111222,99999999' 
TABS,ioos:station:wmo:42048:1,1999-11-04T00:30:00Z,27.9396,-96.8429,2.0,56.22195449,27.06940154,-99999.0,'11111222,11111222,99999999' 
TABS,ioos:station:wmo:42048:1,1999-11-04T01:00:00Z,27.9396,-96.8429,2.0,51.222299,24.26945405,-99999.0,'11111222,11111222,99999999' 
TABS,ioos:station:wmo:42048:1,1999-11-04T01:30:00Z,27.9396,-96.8429,2.0,53.50712817,22.80049342,-99999.0,'11111222,11111222,99999999' 
TABS,ioos:station:wmo:42048:1,1999-11-04T02:00:00Z,27.9396,-96.8429,2.0,45.00010523,17.0695577,-99999.0,'11111222,11111222,99999999' 
TABS,ioos:station:wmo:42048:1,1999-11-04T02:30:00Z,27.9396,-96.8429,2.0,39.79085464,19.78169861,-99999.0,'11111222,11111222,99999999' 
TABS,ioos:station:wmo:42048:1,1999-11-04T03:00:00Z,27.9396,-96.8429,2.0,41.90284106,13.61047391,-99999.0,'11111222,11111222,99999999' 
TABS,ioos:station:wmo:42048:1,1999-11-04T03:30:00Z,27.9396,-96.8429,2.0,47.28047197,15.81636178,-99999.0,'11111222,11111222,99999999' 
TABS,ioos:station:wmo:42048:1,1999-11-04T04:00:00Z,27.9396,-96.8429,2.0,41.25301746,12.87565532,-99999.0,'11111222,11111222,99999999' 
TABS,ioos:station:wmo:42048:1,1999-11-04T04:30:00Z,27.9396,-96.8429,2.0,39.21854315,12.49449479,-99999.0,'11111222,11111222,99999999' 
TABS,ioos:station:wmo:42048:1,1999-11-04T05:00:00Z,27.9396,-96.8429,2.0,38.84179802,13.77615694,-99999.0,'11111222,11111222,99999999' 
TABS,ioos:station:wmo:42048:1,1999-11-04T05:30:00Z,27.9396,-96.8429,2.0,39.89856008,11.84854843,-99999.0,'11111222,11111222,99999999' 
TABS,ioos:station:wmo:42048:1,1999-11-04T06:00:00Z,27.9396,-96.8429,2.0,47.99164777,10.02629543,-99999.0,'11111222,11111222,99999999' 
TABS,ioos:station:wmo:42048:1,1999-11-04T06:30:00Z,27.9396,-96.8429,2.0,16.62564899,10.41541166,-99999.0,'11111222,11111222,99999999' 
TABS,ioos:station:wmo:42048:1,1999-11-04T07:00:00Z,27.9396,-96.8429,2.0,42.59750138,10.1205237,-99999.0,'11111222,11111222,99999999' 
TABS,ioos:station:wmo:42048:1,1999-11-04T07:30:00Z,27.9396,-96.8429,2.0,22.08060399,10.29507164,-99999.0,'11111222,11111222,99999999' 
TABS,ioos:station:wmo:42048:1,1999-11-04T08:00:00Z,27.9396,-96.8429,2.0,18.72793634,9.281406143,-99999.0,'11133222,11111222,99999999' 
TABS,ioos:station:wmo:42048:1,1999-11-04T08:30:00Z,27.9396,-96.8429,2.0,44.37959903,9.794003267,-99999.0,'11133222,11111222,99999999' 
TABS,ioos:station:wmo:42048:1,1999-11-04T09:00:00Z,27.9396,-96.8429,2.0,28.42499905,8.13015375,-99999.0,'11133222,11111222,99999999' 
TABS,ioos:station:wmo:42048:1,1999-11-04T09:30:00Z,27.9396,-96.8429,2.0,18.19365492,10.50517967,-99999.0,'11111222,11111222,99999999' 
TABS,ioos:station:wmo:42048:1,1999-11-04T10:00:00Z,27.9396,-96.8429,2.0,26.51997802,5.66619802,-99999.0,'11133222,11111222,99999999' 
TABS,ioos:station:wmo:42048:1,1999-11-04T10:30:00Z,27.9396,-96.8429,2.0,24.61269503,3.937765864,-99999.0,'11133222,11111222,99999999' 
TABS,ioos:station:wmo:42048:1,1999-11-04T11:00:00Z,27.9396,-96.8429,2.0,337.7784512,3.543162429,-99999.0,'11133222,11111222,99999999' 
TABS,ioos:station:wmo:42048:1,1999-11-04T11:30:00Z,27.9396,-96.8429,2.0,66.69439588,10.53998577,-99999.0,'11111222,11111222,99999999' 
TABS,ioos:station:wmo:42048:1,1999-11-04T12:00:00Z,27.9396,-96.8429,2.0,64.6625869,9.393641466,-99999.0,'11133222,11111222,99999999' 
TABS,ioos:station:wmo:42048:1,1999-11-04T12:30:00Z,27.9396,-96.8429,2.0,77.66094158,11.13727076,-99999.0,'11111222,11111222,99999999' 
TABS,ioos:station:wmo:42048:1,1999-11-04T13:00:00Z,27.9396,-96.8429,2.0,81.18875878,10.70635325,-99999.0,'11111222,11111222,99999999' 
TABS,ioos:station:wmo:42048:1,1999-11-04T13:30:00Z,27.9396,-96.8429,2.0,80.80389053,10.26189554,-99999.0,'11111222,11111222,99999999' 
TABS,ioos:station:wmo:42048:1,1999-11-04T14:00:00Z,27.9396,-96.8429,2.0,78.50541888,9.735255518,-99999.0,'11133222,11111222,99999999' 
TABS,ioos:station:wmo:42048:1,1999-11-04T14:30:00Z,27.9396,-96.8429,2.0,88.14040501,13.86730327,-99999.0,'11111222,11111222,99999999' 
TABS,ioos:station:wmo:42048:1,1999-11-04T15:00:00Z,27.9396,-96.8429,2.0,85.99906987,10.60584744,-99999.0,'11111222,11111222,99999999' 
TABS,ioos:station:wmo:42048:1,1999-11-04T15:30:00Z,27.9396,-96.8429,2.0,98.35257565,11.28975199,-99999.0,'11111222,11111222,99999999' 
TABS,ioos:station:wmo:42048:1,1999-11-04T16:00:00Z,27.9396,-96.8429,2.0,77.40437265,10.22610874,-99999.0,'11111222,11111222,99999999' 